Time,TemperatureF,DewpointF,PressureIn,WindDirection,WindDirectionDegrees,WindSpeedMPH,WindSpeedGustMPH,Humidity,HourlyPrecipIn,Conditions,Clouds,dailyrainin,SoftwareType,DateUTC
2013-12-05 00:01:00,56.8,56.2,29.93,ESE,105,0.0,0.0,98,0.00,,,0.06,Wunderground v.1.15,2013-12-05 05:01:00,
2013-12-05 00:02:00,56.8,56.2,29.93,ESE,105,0.0,0.0,98,0.00,,,0.00,Wunderground v.1.15,2013-12-05 05:02:00,
2013-12-05 00:03:00,56.8,56.2,29.93,ESE,105,0.0,0.0,98,0.00,,,0.00,Wunderground v.1.15,2013-12-05 05:03:00,
2013-12-05 00:04:00,56.8,56.2,29.93,ESE,105,0.0,0.0,98,0.00,,,0.00,Wunderground v.1.15,2013-12-05 05:04:00,
2013-12-05 00:05:00,56.8,56.2,29.93,ESE,105,0.0,0.0,98,0.00,,,0.00,Wunderground v.1.15,2013-12-05 05:05:00,
2013-12-05 00:06:00,56.8,56.2,29.93,ESE,105,0.0,0.0,98,0.00,,,0.00,Wunderground v.1.15,2013-12-05 05:06:00,
2013-12-05 00:11:00,56.8,56.2,29.93,ESE,105,0.0,0.0,98,0.07,,,0.01,Wunderground v.1.15,2013-12-05 05:11:00,
2013-12-05 00:17:00,56.8,56.2,29.93,ESE,105,0.0,0.0,98,0.10,,,0.02,Wunderground v.1.15,2013-12-05 05:17:00,
2013-12-05 00:23:00,56.8,56.2,29.93,ESE,105,0.0,0.0,98,0.09,,,0.03,Wunderground v.1.15,2013-12-05 05:23:00,
2013-12-05 00:28:00,56.8,56.2,29.93,ESE,105,0.0,0.0,98,0.20,,,0.04,Wunderground v.1.15,2013-12-05 05:28:00,
2013-12-05 00:33:00,56.8,56.2,29.93,ESE,105,0.0,0.0,98,0.13,,,0.05,Wunderground v.1.15,2013-12-05 05:33:00,
2013-12-05 00:39:00,56.8,56.2,29.93,ESE,105,0.0,0.0,98,0.06,,,0.05,Wunderground v.1.15,2013-12-05 05:39:00,
2013-12-05 00:45:00,56.9,56.3,29.93,ESE,105,0.0,0.0,98,0.06,,,0.06,Wunderground v.1.15,2013-12-05 05:45:00,
2013-12-05 00:51:00,56.8,56.2,29.93,ESE,105,0.0,0.0,98,0.06,,,0.07,Wunderground v.1.15,2013-12-05 05:51:00,
2013-12-05 00:57:00,56.8,56.2,29.92,ESE,105,0.0,0.0,98,0.13,,,0.08,Wunderground v.1.15,2013-12-05 05:57:00,
2013-12-05 01:02:00,56.8,56.2,29.92,ESE,105,0.0,0.0,98,0.06,,,0.08,Wunderground v.1.15,2013-12-05 06:02:00,
2013-12-05 01:08:00,56.9,56.3,29.92,ESE,105,0.0,0.0,98,0.05,,,0.09,Wunderground v.1.15,2013-12-05 06:08:00,
2013-12-05 01:13:00,56.9,56.3,29.92,ESE,105,0.0,0.0,98,0.08,,,0.10,Wunderground v.1.15,2013-12-05 06:13:00,
2013-12-05 01:18:00,56.9,56.3,29.92,ESE,105,0.0,0.0,98,0.08,,,0.10,Wunderground v.1.15,2013-12-05 06:18:00,
2013-12-05 01:24:00,56.9,56.3,29.92,ESE,105,0.0,0.0,98,0.05,,,0.10,Wunderground v.1.15,2013-12-05 06:24:00,
2013-12-05 01:30:00,56.9,56.3,29.92,ESE,105,0.0,0.0,98,0.04,,,0.11,Wunderground v.1.15,2013-12-05 06:30:00,
2013-12-05 01:36:00,56.9,56.3,29.92,ESE,105,0.0,0.0,98,0.09,,,0.12,Wunderground v.1.15,2013-12-05 06:36:00,
2013-12-05 01:42:00,56.9,56.3,29.91,ESE,105,0.0,0.0,98,0.06,,,0.12,Wunderground v.1.15,2013-12-05 06:42:00,
2013-12-05 01:48:00,56.9,56.3,29.92,ESE,105,0.0,0.0,98,0.04,,,0.12,Wunderground v.1.15,2013-12-05 06:48:00,
2013-12-05 01:54:00,56.8,56.2,29.91,ESE,105,0.0,0.0,98,0.00,,,0.12,Wunderground v.1.15,2013-12-05 06:54:00,
2013-12-05 01:59:00,56.9,56.3,29.91,ESE,105,0.0,0.0,98,0.00,,,0.12,Wunderground v.1.15,2013-12-05 06:59:00,
2013-12-05 02:05:00,56.8,56.2,29.91,ESE,105,0.0,0.0,98,0.00,,,0.13,Wunderground v.1.15,2013-12-05 07:05:00,
2013-12-05 02:11:00,56.8,56.2,29.91,ESE,105,0.0,0.0,98,0.00,,,0.13,Wunderground v.1.15,2013-12-05 07:11:00,
2013-12-05 02:16:00,56.9,56.3,29.91,ESE,105,0.0,0.0,98,0.07,,,0.14,Wunderground v.1.15,2013-12-05 07:16:00,
2013-12-05 02:22:00,56.9,56.3,29.91,ESE,105,0.0,0.0,98,0.06,,,0.15,Wunderground v.1.15,2013-12-05 07:22:00,
2013-12-05 02:28:00,56.9,56.3,29.91,ESE,105,0.0,0.0,98,0.06,,,0.15,Wunderground v.1.15,2013-12-05 07:28:00,
2013-12-05 02:34:00,57.0,56.4,29.92,ESE,105,0.0,0.0,98,0.08,,,0.16,Wunderground v.1.15,2013-12-05 07:34:00,
2013-12-05 02:40:00,57.0,56.4,29.92,ESE,105,0.0,0.0,98,0.06,,,0.16,Wunderground v.1.15,2013-12-05 07:40:00,
2013-12-05 02:45:00,57.1,56.5,29.91,ESE,105,0.0,0.0,98,0.04,,,0.16,Wunderground v.1.15,2013-12-05 07:45:00,
2013-12-05 02:50:00,57.1,56.5,29.92,ESE,105,0.0,0.0,98,0.00,,,0.16,Wunderground v.1.15,2013-12-05 07:50:00,
2013-12-05 02:56:00,57.1,56.5,29.92,ESE,105,0.0,0.0,98,0.00,,,0.16,Wunderground v.1.15,2013-12-05 07:56:00,
2013-12-05 03:01:00,57.1,56.5,29.91,ESE,105,0.0,0.0,98,0.00,,,0.16,Wunderground v.1.15,2013-12-05 08:01:00,
2013-12-05 03:07:00,57.1,56.5,29.91,ESE,105,0.0,0.0,98,0.00,,,0.17,Wunderground v.1.15,2013-12-05 08:07:00,
2013-12-05 03:13:00,57.1,56.5,29.91,ESE,105,0.0,0.0,98,0.00,,,0.17,Wunderground v.1.15,2013-12-05 08:13:00,
2013-12-05 03:18:00,57.2,56.6,29.91,ESE,105,0.0,0.0,98,0.00,,,0.17,Wunderground v.1.15,2013-12-05 08:18:00,
2013-12-05 03:24:00,57.2,56.6,29.91,ESE,105,0.0,0.0,98,0.00,,,0.17,Wunderground v.1.15,2013-12-05 08:24:00,
2013-12-05 03:30:00,57.2,56.6,29.90,ESE,105,0.0,0.0,98,0.00,,,0.17,Wunderground v.1.15,2013-12-05 08:30:00,
2013-12-05 03:35:00,57.1,56.5,29.89,ESE,105,0.0,0.0,98,0.00,,,0.17,Wunderground v.1.15,2013-12-05 08:35:00,
2013-12-05 03:41:00,57.1,56.5,29.89,ESE,105,0.0,0.0,98,0.00,,,0.17,Wunderground v.1.15,2013-12-05 08:41:00,
2013-12-05 03:48:00,57.1,56.5,29.90,ESE,105,0.0,0.0,98,0.00,,,0.17,Wunderground v.1.15,2013-12-05 08:48:00,
2013-12-05 03:54:00,57.0,56.4,29.90,ESE,105,0.0,0.0,98,0.00,,,0.17,Wunderground v.1.15,2013-12-05 08:54:00,
2013-12-05 04:00:00,56.9,56.3,29.90,ESE,105,0.0,0.0,98,0.00,,,0.17,Wunderground v.1.15,2013-12-05 09:00:00,
2013-12-05 04:06:00,56.9,56.3,29.90,ESE,105,0.0,0.0,98,0.00,,,0.17,Wunderground v.1.15,2013-12-05 09:06:00,
2013-12-05 04:12:00,56.9,56.3,29.90,ESE,105,0.0,0.0,98,0.00,,,0.17,Wunderground v.1.15,2013-12-05 09:12:00,
2013-12-05 04:18:00,56.8,56.2,29.90,ESE,105,0.0,0.0,98,0.00,,,0.17,Wunderground v.1.15,2013-12-05 09:18:00,
2013-12-05 04:24:00,56.9,56.3,29.90,ESE,105,0.0,0.0,98,0.00,,,0.17,Wunderground v.1.15,2013-12-05 09:24:00,
2013-12-05 04:29:00,56.9,56.3,29.90,ESE,105,0.0,0.0,98,0.00,,,0.17,Wunderground v.1.15,2013-12-05 09:29:00,
2013-12-05 04:34:00,56.8,56.2,29.90,ESE,105,0.0,0.0,98,0.00,,,0.17,Wunderground v.1.15,2013-12-05 09:34:00,
2013-12-05 04:40:00,56.9,56.3,29.91,ESE,105,0.0,1.0,98,0.00,,,0.17,Wunderground v.1.15,2013-12-05 09:40:00,
2013-12-05 04:48:00,56.9,56.3,29.91,ESE,105,0.0,0.0,98,0.00,,,0.17,Wunderground v.1.15,2013-12-05 09:48:00,
2013-12-05 04:54:00,56.9,56.3,29.91,ESE,105,0.0,0.0,98,0.00,,,0.17,Wunderground v.1.15,2013-12-05 09:54:00,
2013-12-05 05:00:00,56.9,56.3,29.90,ESE,105,0.0,0.0,98,0.00,,,0.17,Wunderground v.1.15,2013-12-05 10:00:00,
2013-12-05 05:06:00,56.9,56.3,29.91,ESE,105,0.0,1.0,98,0.00,,,0.17,Wunderground v.1.15,2013-12-05 10:06:00,
2013-12-05 05:12:00,57.0,56.4,29.90,ESE,105,0.0,0.0,98,0.00,,,0.17,Wunderground v.1.15,2013-12-05 10:12:00,
2013-12-05 05:18:00,57.0,56.4,29.91,ESE,105,0.0,0.0,98,0.00,,,0.18,Wunderground v.1.15,2013-12-05 10:18:00,
2013-12-05 05:23:00,56.9,56.3,29.91,ESE,105,0.0,1.0,98,0.00,,,0.18,Wunderground v.1.15,2013-12-05 10:23:00,
2013-12-05 05:29:00,57.1,56.5,29.91,ESE,105,0.0,1.0,98,0.00,,,0.18,Wunderground v.1.15,2013-12-05 10:29:00,
2013-12-05 05:35:00,57.0,56.4,29.90,East,101,0.0,1.0,98,0.00,,,0.18,Wunderground v.1.15,2013-12-05 10:35:00,
2013-12-05 05:40:00,57.0,56.4,29.91,NE,55,0.0,1.0,98,0.00,,,0.18,Wunderground v.1.15,2013-12-05 10:40:00,
2013-12-05 05:45:00,56.9,56.3,29.91,NE,55,0.0,2.0,98,0.00,,,0.18,Wunderground v.1.15,2013-12-05 10:45:00,
2013-12-05 05:51:00,56.9,56.3,29.91,NE,55,0.0,0.0,98,0.00,,,0.18,Wunderground v.1.15,2013-12-05 10:51:00,
2013-12-05 05:56:00,56.9,56.3,29.91,NE,55,0.0,1.0,98,0.00,,,0.18,Wunderground v.1.15,2013-12-05 10:56:00,
2013-12-05 06:02:00,57.1,56.5,29.91,NE,53,0.0,1.0,98,0.00,,,0.18,Wunderground v.1.15,2013-12-05 11:02:00,
2013-12-05 06:07:00,57.2,56.6,29.90,NE,53,0.0,1.0,98,0.00,,,0.18,Wunderground v.1.15,2013-12-05 11:07:00,
2013-12-05 06:13:00,57.4,56.8,29.91,NE,53,0.0,1.0,98,0.00,,,0.18,Wunderground v.1.15,2013-12-05 11:13:00,
2013-12-05 06:19:00,57.6,57.0,29.91,NE,53,0.0,1.0,98,0.00,,,0.18,Wunderground v.1.15,2013-12-05 11:19:00,
2013-12-05 06:24:00,57.5,56.9,29.91,NE,53,0.0,1.0,98,0.00,,,0.18,Wunderground v.1.15,2013-12-05 11:24:00,
2013-12-05 06:30:00,57.5,56.9,29.92,NE,53,0.0,0.0,98,0.00,,,0.18,Wunderground v.1.15,2013-12-05 11:30:00,
2013-12-05 06:36:00,57.7,57.1,29.92,NE,53,0.0,0.0,98,0.00,,,0.18,Wunderground v.1.15,2013-12-05 11:36:00,
2013-12-05 06:42:00,57.7,57.1,29.92,NE,53,0.0,1.0,98,0.00,,,0.18,Wunderground v.1.15,2013-12-05 11:42:00,
2013-12-05 06:48:00,57.7,57.1,29.92,NE,53,0.0,0.0,98,0.00,,,0.18,Wunderground v.1.15,2013-12-05 11:48:00,
2013-12-05 06:54:00,57.7,57.1,29.93,NE,53,0.0,1.0,98,0.00,,,0.18,Wunderground v.1.15,2013-12-05 11:54:00,
2013-12-05 07:00:00,57.7,57.1,29.92,NE,53,0.0,1.0,98,0.00,,,0.18,Wunderground v.1.15,2013-12-05 12:00:00,
2013-12-05 07:06:00,57.8,57.2,29.92,NE,53,0.0,1.0,98,0.00,,,0.18,Wunderground v.1.15,2013-12-05 12:06:00,
2013-12-05 07:12:00,58.0,57.4,29.92,NE,53,0.0,1.0,98,0.00,,,0.18,Wunderground v.1.15,2013-12-05 12:12:00,
2013-12-05 07:17:00,57.9,57.3,29.92,NE,52,0.0,2.0,98,0.00,,,0.18,Wunderground v.1.15,2013-12-05 12:17:00,
2013-12-05 07:22:00,57.8,57.2,29.92,NE,52,0.0,0.0,98,0.00,,,0.18,Wunderground v.1.15,2013-12-05 12:22:00,
2013-12-05 07:28:00,57.9,57.3,29.92,NE,52,0.0,0.0,98,0.00,,,0.18,Wunderground v.1.15,2013-12-05 12:28:00,
2013-12-05 07:33:00,57.9,57.3,29.92,NE,52,0.0,0.0,98,0.00,,,0.18,Wunderground v.1.15,2013-12-05 12:33:00,
2013-12-05 07:39:00,58.0,57.4,29.92,NE,52,0.0,0.0,98,0.00,,,0.18,Wunderground v.1.15,2013-12-05 12:39:00,
2013-12-05 07:45:00,57.9,57.3,29.92,NE,52,0.0,0.0,98,0.00,,,0.18,Wunderground v.1.15,2013-12-05 12:45:00,
2013-12-05 07:50:00,57.9,57.3,29.93,NE,52,0.0,0.0,98,0.00,,,0.18,Wunderground v.1.15,2013-12-05 12:50:00,
2013-12-05 07:55:00,58.0,57.4,29.93,NE,52,0.0,0.0,98,0.00,,,0.18,Wunderground v.1.15,2013-12-05 12:55:00,
2013-12-05 08:00:00,58.1,57.5,29.92,NE,52,0.0,0.0,98,0.00,,,0.18,Wunderground v.1.15,2013-12-05 13:00:00,
2013-12-05 08:06:00,58.1,57.5,29.92,NE,52,0.0,0.0,98,0.00,,,0.19,Wunderground v.1.15,2013-12-05 13:06:00,
2013-12-05 08:12:00,58.2,57.6,29.93,NE,52,0.0,0.0,98,0.10,,,0.20,Wunderground v.1.15,2013-12-05 13:12:00,
2013-12-05 08:18:00,58.4,57.8,29.93,NE,52,0.0,0.0,98,0.08,,,0.21,Wunderground v.1.15,2013-12-05 13:18:00,
2013-12-05 08:24:00,58.6,58.0,29.93,NE,52,0.0,0.0,98,0.08,,,0.22,Wunderground v.1.15,2013-12-05 13:24:00,
2013-12-05 08:29:00,58.6,58.0,29.93,NE,52,0.0,0.0,98,0.08,,,0.22,Wunderground v.1.15,2013-12-05 13:29:00,
2013-12-05 08:35:00,58.7,58.1,29.93,NE,52,0.0,0.0,98,0.05,,,0.22,Wunderground v.1.15,2013-12-05 13:35:00,
2013-12-05 08:41:00,58.7,58.1,29.93,NE,52,0.0,0.0,98,0.00,,,0.22,Wunderground v.1.15,2013-12-05 13:41:00,
2013-12-05 08:49:00,58.9,58.3,29.93,NE,52,0.0,0.0,98,0.00,,,0.22,Wunderground v.1.15,2013-12-05 13:49:00,
2013-12-05 08:54:00,58.9,58.3,29.92,NE,52,0.0,1.0,98,0.43,,,0.26,Wunderground v.1.15,2013-12-05 13:54:00,
2013-12-05 08:59:00,59.0,58.4,29.93,NE,52,0.0,0.0,98,0.11,,,0.26,Wunderground v.1.15,2013-12-05 13:59:00,
2013-12-05 09:04:00,59.1,58.5,29.93,NE,52,0.0,0.0,98,0.13,,,0.28,Wunderground v.1.15,2013-12-05 14:04:00,
2013-12-05 09:10:00,59.4,58.8,29.93,NE,52,0.0,0.0,98,0.06,,,0.28,Wunderground v.1.15,2013-12-05 14:10:00,
2013-12-05 09:15:00,59.6,59.0,29.93,NE,52,0.0,1.0,98,0.04,,,0.28,Wunderground v.1.15,2013-12-05 14:15:00,
2013-12-05 09:21:00,59.7,59.1,29.94,East,92,0.0,0.0,98,0.34,,,0.30,Wunderground v.1.15,2013-12-05 14:21:00,
2013-12-05 09:26:00,59.7,59.1,29.94,East,92,0.0,1.0,98,0.10,,,0.30,Wunderground v.1.15,2013-12-05 14:26:00,
2013-12-05 09:32:00,59.6,59.0,29.94,East,92,0.0,1.0,98,0.05,,,0.30,Wunderground v.1.15,2013-12-05 14:32:00,
2013-12-05 09:37:00,59.6,59.0,29.94,ESE,109,1.0,1.0,98,0.00,,,0.30,Wunderground v.1.15,2013-12-05 14:37:00,
2013-12-05 09:43:00,59.7,59.1,29.94,ESE,109,1.0,1.0,98,0.00,,,0.30,Wunderground v.1.15,2013-12-05 14:43:00,
2013-12-05 09:49:00,59.7,59.1,29.94,ESE,109,0.0,0.0,98,0.00,,,0.30,Wunderground v.1.15,2013-12-05 14:49:00,
2013-12-05 09:54:00,59.7,59.1,29.95,ESE,109,0.0,0.0,98,0.00,,,0.30,Wunderground v.1.15,2013-12-05 14:54:00,
2013-12-05 09:59:00,59.6,59.0,29.95,ESE,109,0.0,1.0,98,0.13,,,0.32,Wunderground v.1.15,2013-12-05 14:59:00,
2013-12-05 10:04:00,59.5,58.9,29.95,ESE,109,0.0,1.0,98,0.11,,,0.32,Wunderground v.1.15,2013-12-05 15:04:00,
2013-12-05 10:10:00,59.5,58.9,29.95,ESE,109,0.0,0.0,98,0.05,,,0.32,Wunderground v.1.15,2013-12-05 15:10:00,
2013-12-05 10:15:00,59.5,58.9,29.95,ESE,109,0.0,0.0,98,0.04,,,0.32,Wunderground v.1.15,2013-12-05 15:15:00,
2013-12-05 10:20:00,59.5,58.9,29.95,ESE,109,0.0,0.0,98,0.00,,,0.33,Wunderground v.1.15,2013-12-05 15:20:00,
2013-12-05 10:26:00,59.5,58.9,29.95,ESE,109,0.0,0.0,98,0.00,,,0.33,Wunderground v.1.15,2013-12-05 15:26:00,
2013-12-05 10:32:00,59.5,58.9,29.95,ESE,109,0.0,0.0,98,0.05,,,0.34,Wunderground v.1.15,2013-12-05 15:32:00,
2013-12-05 10:37:00,59.6,59.0,29.95,ESE,109,0.0,0.0,98,0.05,,,0.34,Wunderground v.1.15,2013-12-05 15:37:00,
2013-12-05 10:42:00,59.7,59.1,29.95,ESE,109,0.0,0.0,98,0.04,,,0.34,Wunderground v.1.15,2013-12-05 15:42:00,
2013-12-05 10:49:00,59.7,59.1,29.95,ESE,109,0.0,0.0,98,0.00,,,0.35,Wunderground v.1.15,2013-12-05 15:49:00,
2013-12-05 10:54:00,59.8,59.2,29.94,ESE,109,0.0,0.0,98,0.13,,,0.36,Wunderground v.1.15,2013-12-05 15:54:00,
2013-12-05 11:00:00,59.9,59.3,29.95,ESE,109,0.0,0.0,98,0.06,,,0.36,Wunderground v.1.15,2013-12-05 16:00:00,
2013-12-05 11:06:00,59.9,59.3,29.94,ESE,109,0.0,2.0,98,0.04,,,0.36,Wunderground v.1.15,2013-12-05 16:06:00,
2013-12-05 11:12:00,59.8,59.2,29.94,ESE,109,0.0,0.0,98,0.00,,,0.36,Wunderground v.1.15,2013-12-05 16:12:00,
2013-12-05 11:18:00,59.9,59.3,29.94,ESE,109,0.0,0.0,98,0.00,,,0.36,Wunderground v.1.15,2013-12-05 16:18:00,
2013-12-05 11:24:00,60.0,59.4,29.94,ESE,109,0.0,0.0,98,0.00,,,0.37,Wunderground v.1.15,2013-12-05 16:24:00,
2013-12-05 11:29:00,60.0,59.4,29.94,ESE,109,0.0,0.0,98,0.00,,,0.37,Wunderground v.1.15,2013-12-05 16:29:00,
2013-12-05 11:35:00,60.2,59.6,29.93,ESE,109,0.0,0.0,98,0.00,,,0.37,Wunderground v.1.15,2013-12-05 16:35:00,
2013-12-05 11:40:00,60.2,59.6,29.93,ESE,109,0.0,0.0,98,0.00,,,0.37,Wunderground v.1.15,2013-12-05 16:40:00,
2013-12-05 11:45:00,60.4,59.8,29.93,ESE,109,0.0,0.0,98,0.00,,,0.37,Wunderground v.1.15,2013-12-05 16:45:00,
2013-12-05 11:50:00,60.4,59.8,29.92,ESE,109,0.0,0.0,98,0.00,,,0.37,Wunderground v.1.15,2013-12-05 16:50:00,
2013-12-05 11:55:00,60.4,59.8,29.92,ESE,109,0.0,0.0,98,0.00,,,0.37,Wunderground v.1.15,2013-12-05 16:55:00,
2013-12-05 12:00:00,60.4,59.8,29.92,ESE,109,0.0,0.0,98,0.00,,,0.37,Wunderground v.1.15,2013-12-05 17:00:00,
2013-12-05 12:06:00,60.4,59.8,29.92,ESE,109,0.0,0.0,98,0.00,,,0.38,Wunderground v.1.15,2013-12-05 17:06:00,
2013-12-05 12:12:00,60.4,59.8,29.91,ESE,109,0.0,1.0,98,0.00,,,0.38,Wunderground v.1.15,2013-12-05 17:12:00,
2013-12-05 12:18:00,60.3,59.7,29.91,ESE,109,0.0,1.0,98,0.00,,,0.38,Wunderground v.1.15,2013-12-05 17:18:00,
2013-12-05 12:24:00,60.3,59.7,29.90,ESE,109,0.0,0.0,98,0.00,,,0.38,Wunderground v.1.15,2013-12-05 17:24:00,
2013-12-05 12:29:00,60.4,59.8,29.90,ESE,109,0.0,1.0,98,0.00,,,0.38,Wunderground v.1.15,2013-12-05 17:29:00,
2013-12-05 12:35:00,60.5,59.9,29.90,ESE,109,0.0,0.0,98,0.00,,,0.38,Wunderground v.1.15,2013-12-05 17:35:00,
2013-12-05 12:41:00,60.7,60.1,29.90,ESE,109,0.0,0.0,98,0.00,,,0.38,Wunderground v.1.15,2013-12-05 17:41:00,
2013-12-05 12:48:00,60.9,60.3,29.90,ESE,109,0.0,0.0,98,0.00,,,0.38,Wunderground v.1.15,2013-12-05 17:48:00,
2013-12-05 12:54:00,60.9,60.3,29.89,ESE,109,0.0,0.0,98,0.00,,,0.38,Wunderground v.1.15,2013-12-05 17:54:00,
2013-12-05 13:00:00,60.9,60.3,29.89,ESE,109,0.0,0.0,98,0.00,,,0.38,Wunderground v.1.15,2013-12-05 18:00:00,
2013-12-05 13:06:00,60.9,60.3,29.88,ESE,109,0.0,1.0,98,0.00,,,0.38,Wunderground v.1.15,2013-12-05 18:06:00,
2013-12-05 13:12:00,60.9,60.3,29.87,ESE,109,0.0,0.0,98,0.00,,,0.38,Wunderground v.1.15,2013-12-05 18:12:00,
2013-12-05 13:18:00,61.0,60.4,29.86,ESE,109,0.0,0.0,98,0.00,,,0.38,Wunderground v.1.15,2013-12-05 18:18:00,
2013-12-05 13:24:00,61.2,60.6,29.86,ESE,109,0.0,0.0,98,0.00,,,0.38,Wunderground v.1.15,2013-12-05 18:24:00,
2013-12-05 13:30:00,61.3,60.7,29.86,ESE,109,0.0,0.0,98,0.00,,,0.38,Wunderground v.1.15,2013-12-05 18:30:00,
2013-12-05 13:36:00,61.5,60.9,29.85,ESE,109,0.0,0.0,98,0.00,,,0.38,Wunderground v.1.15,2013-12-05 18:36:00,
2013-12-05 13:41:00,61.6,61.3,29.85,ESE,109,0.0,0.0,99,0.00,,,0.38,Wunderground v.1.15,2013-12-05 18:41:00,
2013-12-05 13:48:00,61.8,61.5,29.85,ESE,103,0.0,1.0,99,0.00,,,0.38,Wunderground v.1.15,2013-12-05 18:48:00,
2013-12-05 13:54:00,61.6,61.0,29.85,East,96,1.0,2.0,98,0.00,,,0.38,Wunderground v.1.15,2013-12-05 18:54:00,
2013-12-05 14:00:00,61.6,61.0,29.84,East,96,1.0,1.0,98,0.00,,,0.38,Wunderground v.1.15,2013-12-05 19:00:00,
2013-12-05 14:06:00,61.6,61.0,29.84,East,96,0.0,1.0,98,0.00,,,0.38,Wunderground v.1.15,2013-12-05 19:06:00,
2013-12-05 14:12:00,61.6,61.0,29.84,East,96,0.0,0.0,98,0.00,,,0.38,Wunderground v.1.15,2013-12-05 19:12:00,
2013-12-05 14:17:00,61.7,61.1,29.84,East,96,0.0,1.0,98,0.00,,,0.38,Wunderground v.1.15,2013-12-05 19:17:00,
2013-12-05 14:22:00,61.7,61.1,29.84,East,96,0.0,0.0,98,0.00,,,0.38,Wunderground v.1.15,2013-12-05 19:22:00,
2013-12-05 14:28:00,61.7,61.1,29.83,East,96,0.0,1.0,98,0.00,,,0.38,Wunderground v.1.15,2013-12-05 19:28:00,
2013-12-05 14:34:00,61.7,61.1,29.83,East,92,0.0,2.0,98,0.00,,,0.38,Wunderground v.1.15,2013-12-05 19:34:00,
2013-12-05 14:40:00,61.7,61.1,29.83,East,92,0.0,2.0,98,0.00,,,0.38,Wunderground v.1.15,2013-12-05 19:40:00,
2013-12-05 14:48:00,61.7,61.1,29.82,East,92,0.0,0.0,98,0.00,,,0.39,Wunderground v.1.15,2013-12-05 19:48:00,
2013-12-05 14:54:00,61.7,61.1,29.82,East,92,0.0,0.0,98,0.00,,,0.39,Wunderground v.1.15,2013-12-05 19:54:00,
2013-12-05 15:00:00,61.7,61.1,29.82,East,92,0.0,0.0,98,0.04,,,0.40,Wunderground v.1.15,2013-12-05 20:00:00,
2013-12-05 15:06:00,61.7,61.1,29.82,East,92,0.0,0.0,98,0.06,,,0.41,Wunderground v.1.15,2013-12-05 20:06:00,
2013-12-05 15:11:00,61.7,61.1,29.81,East,92,0.0,0.0,98,0.17,,,0.42,Wunderground v.1.15,2013-12-05 20:11:00,
2013-12-05 15:16:00,61.7,61.1,29.81,East,92,0.0,0.0,98,0.07,,,0.42,Wunderground v.1.15,2013-12-05 20:16:00,
2013-12-05 15:22:00,61.7,61.1,29.81,East,92,0.0,2.0,98,0.06,,,0.43,Wunderground v.1.15,2013-12-05 20:22:00,
2013-12-05 15:27:00,61.7,61.1,29.81,East,92,0.0,2.0,98,0.06,,,0.43,Wunderground v.1.15,2013-12-05 20:27:00,
2013-12-05 15:32:00,61.7,61.1,29.82,East,92,0.0,1.0,98,0.04,,,0.43,Wunderground v.1.15,2013-12-05 20:32:00,
2013-12-05 15:37:00,61.7,61.1,29.81,East,92,1.0,1.0,98,0.00,,,0.43,Wunderground v.1.15,2013-12-05 20:37:00,
2013-12-05 15:42:00,61.7,61.1,29.81,East,92,0.0,0.0,98,0.00,,,0.43,Wunderground v.1.15,2013-12-05 20:42:00,
2013-12-05 15:48:00,61.7,61.1,29.81,East,92,0.0,2.0,98,0.00,,,0.43,Wunderground v.1.15,2013-12-05 20:48:00,
2013-12-05 15:54:00,61.7,61.1,29.82,East,92,0.0,2.0,98,0.00,,,0.43,Wunderground v.1.15,2013-12-05 20:54:00,
2013-12-05 15:59:00,61.7,61.1,29.82,East,92,0.0,2.0,98,0.00,,,0.43,Wunderground v.1.15,2013-12-05 20:59:00,
2013-12-05 16:04:00,61.8,61.2,29.82,East,92,0.0,0.0,98,0.00,,,0.43,Wunderground v.1.15,2013-12-05 21:04:00,
2013-12-05 16:09:00,61.7,61.1,29.83,East,92,0.0,1.0,98,0.00,,,0.43,Wunderground v.1.15,2013-12-05 21:09:00,
2013-12-05 16:15:00,61.7,61.1,29.83,East,92,0.0,1.0,98,0.00,,,0.43,Wunderground v.1.15,2013-12-05 21:15:00,
2013-12-05 16:21:00,61.8,61.2,29.82,East,88,1.0,1.0,98,0.00,,,0.43,Wunderground v.1.15,2013-12-05 21:21:00,
2013-12-05 16:26:00,61.8,61.2,29.82,East,88,0.0,1.0,98,0.00,,,0.44,Wunderground v.1.15,2013-12-05 21:26:00,
2013-12-05 16:32:00,61.9,61.3,29.82,East,88,0.0,0.0,98,0.00,,,0.44,Wunderground v.1.15,2013-12-05 21:32:00,
2013-12-05 16:37:00,62.0,61.4,29.82,East,88,0.0,1.0,98,0.00,,,0.44,Wunderground v.1.15,2013-12-05 21:37:00,
2013-12-05 16:42:00,62.0,61.4,29.83,East,88,0.0,0.0,98,0.00,,,0.44,Wunderground v.1.15,2013-12-05 21:42:00,
2013-12-05 16:48:00,61.9,61.3,29.82,East,88,0.0,0.0,98,0.00,,,0.44,Wunderground v.1.15,2013-12-05 21:48:00,
2013-12-05 16:54:00,61.9,61.3,29.82,East,88,0.0,0.0,98,0.00,,,0.44,Wunderground v.1.15,2013-12-05 21:54:00,
2013-12-05 17:00:00,61.9,61.3,29.82,East,88,0.0,0.0,98,0.00,,,0.44,Wunderground v.1.15,2013-12-05 22:00:00,
2013-12-05 17:06:00,61.9,61.6,29.82,East,88,0.0,0.0,99,0.00,,,0.44,Wunderground v.1.15,2013-12-05 22:06:00,
2013-12-05 17:12:00,61.8,61.2,29.81,East,88,0.0,0.0,98,0.00,,,0.44,Wunderground v.1.15,2013-12-05 22:12:00,
2013-12-05 17:17:00,61.8,61.5,29.81,East,88,0.0,0.0,99,0.00,,,0.44,Wunderground v.1.15,2013-12-05 22:17:00,
2013-12-05 17:22:00,61.8,61.5,29.82,East,88,0.0,0.0,99,0.00,,,0.44,Wunderground v.1.15,2013-12-05 22:22:00,
2013-12-05 17:27:00,61.8,61.5,29.82,East,88,0.0,0.0,99,0.00,,,0.44,Wunderground v.1.15,2013-12-05 22:27:00,
2013-12-05 17:33:00,61.8,61.5,29.81,East,88,0.0,0.0,99,0.00,,,0.44,Wunderground v.1.15,2013-12-05 22:33:00,
2013-12-05 17:39:00,61.7,61.4,29.81,East,88,0.0,0.0,99,0.00,,,0.45,Wunderground v.1.15,2013-12-05 22:39:00,
2013-12-05 17:45:00,61.7,61.4,29.81,East,88,0.0,1.0,99,0.16,,,0.46,Wunderground v.1.15,2013-12-05 22:45:00,
2013-12-05 17:51:00,61.8,61.5,29.82,East,90,0.0,0.0,99,0.18,,,0.48,Wunderground v.1.15,2013-12-05 22:51:00,
2013-12-05 17:57:00,62.0,61.4,29.83,ENE,77,0.0,1.0,98,0.26,,,0.51,Wunderground v.1.15,2013-12-05 22:57:00,
2013-12-05 18:03:00,62.1,61.5,29.83,East,85,0.0,2.0,98,0.14,,,0.53,Wunderground v.1.15,2013-12-05 23:03:00,
2013-12-05 18:09:00,62.1,61.5,29.82,East,85,1.0,2.0,98,0.36,,,0.57,Wunderground v.1.15,2013-12-05 23:09:00,
2013-12-05 18:14:00,62.2,61.6,29.81,East,80,1.0,2.0,98,0.13,,,0.58,Wunderground v.1.15,2013-12-05 23:14:00,
2013-12-05 18:19:00,62.2,61.9,29.81,East,80,0.0,2.0,99,0.11,,,0.59,Wunderground v.1.15,2013-12-05 23:19:00,
2013-12-05 18:25:00,62.3,62.0,29.81,East,80,0.0,1.0,99,0.11,,,0.60,Wunderground v.1.15,2013-12-05 23:25:00,
2013-12-05 18:31:00,62.3,62.0,29.81,ESE,105,0.0,2.0,99,0.06,,,0.61,Wunderground v.1.15,2013-12-05 23:31:00,
2013-12-05 18:36:00,62.4,62.1,29.81,East,95,1.0,2.0,99,0.11,,,0.62,Wunderground v.1.15,2013-12-05 23:36:00,
2013-12-05 18:42:00,62.4,62.1,29.80,East,95,0.0,0.0,99,0.32,,,0.68,Wunderground v.1.15,2013-12-05 23:42:00,
2013-12-05 19:48:00,63.3,63.0,29.81,ENE,72,1.0,4.0,99,0.06,,,1.03,Wunderground v.1.15,2013-12-06 00:48:00,
2013-12-05 19:54:00,63.4,63.1,29.81,East,94,2.0,5.0,99,0.40,,,1.06,Wunderground v.1.15,2013-12-06 00:54:00,
2013-12-05 19:59:00,63.4,62.8,29.80,East,94,1.0,1.0,98,0.10,,,1.06,Wunderground v.1.15,2013-12-06 00:59:00,
2013-12-05 20:04:00,63.4,63.1,29.80,East,94,0.0,1.0,99,0.05,,,1.06,Wunderground v.1.15,2013-12-06 01:04:00,
2013-12-05 20:10:00,63.4,62.8,29.80,East,82,1.0,1.0,98,0.04,,,1.06,Wunderground v.1.15,2013-12-06 01:10:00,
2013-12-05 20:15:00,63.4,63.1,29.81,East,82,1.0,1.0,99,0.00,,,1.06,Wunderground v.1.15,2013-12-06 01:15:00,
2013-12-05 20:20:00,63.4,62.8,29.80,East,82,1.0,3.0,98,0.25,,,1.08,Wunderground v.1.15,2013-12-06 01:20:00,
2013-12-05 20:26:00,63.5,63.2,29.80,NE,53,2.0,5.0,99,0.10,,,1.09,Wunderground v.1.15,2013-12-06 01:26:00,
2013-12-05 20:31:00,63.6,63.3,29.80,East,80,2.0,3.0,99,0.15,,,1.10,Wunderground v.1.15,2013-12-06 01:31:00,
2013-12-05 20:37:00,63.8,63.5,29.80,ENE,78,2.0,5.0,99,0.07,,,1.10,Wunderground v.1.15,2013-12-06 01:37:00,
2013-12-05 20:43:00,64.0,63.7,29.80,ENE,74,2.0,4.0,99,0.04,,,1.10,Wunderground v.1.15,2013-12-06 01:43:00,
2013-12-05 20:48:00,64.0,63.7,29.80,ENE,63,2.0,3.0,99,1.60,,,1.14,Wunderground v.1.15,2013-12-06 01:48:00,
2013-12-05 20:54:00,64.1,63.8,29.80,East,84,2.0,3.0,99,0.19,,,1.16,Wunderground v.1.15,2013-12-06 01:54:00,
2013-12-05 21:00:00,64.1,63.8,29.80,ENE,71,2.0,4.0,99,0.24,,,1.18,Wunderground v.1.15,2013-12-06 02:00:00,
2013-12-05 21:06:00,64.1,63.8,29.79,ENE,62,1.0,4.0,99,0.20,,,1.20,Wunderground v.1.15,2013-12-06 02:06:00,
2013-12-05 21:12:00,64.1,63.8,29.79,ENE,73,2.0,4.0,99,1.53,,,1.24,Wunderground v.1.15,2013-12-06 02:12:00,
2013-12-05 21:18:00,64.1,63.8,29.79,ENE,69,2.0,4.0,99,0.53,,,1.31,Wunderground v.1.15,2013-12-06 02:18:00,
2013-12-05 21:24:00,64.0,63.4,29.79,NE,53,2.0,4.0,98,0.21,,,1.36,Wunderground v.1.15,2013-12-06 02:24:00,
2013-12-05 21:30:00,64.0,63.4,29.80,ENE,64,2.0,4.0,98,0.15,,,1.38,Wunderground v.1.15,2013-12-06 02:30:00,
2013-12-05 21:36:00,64.0,63.4,29.80,ENE,64,1.0,4.0,98,0.10,,,1.39,Wunderground v.1.15,2013-12-06 02:36:00,
2013-12-05 21:42:00,64.0,63.4,29.80,ENE,67,1.0,3.0,98,0.36,,,1.45,Wunderground v.1.15,2013-12-06 02:42:00,
2013-12-05 21:48:00,64.0,63.4,29.79,ENE,67,1.0,1.0,98,0.11,,,1.46,Wunderground v.1.15,2013-12-06 02:48:00,
2013-12-05 21:54:00,64.0,63.4,29.79,ENE,76,1.0,3.0,98,0.06,,,1.47,Wunderground v.1.15,2013-12-06 02:54:00,
2013-12-05 22:00:00,64.0,63.4,29.79,ENE,72,1.0,1.0,98,0.16,,,1.48,Wunderground v.1.15,2013-12-06 03:00:00,
2013-12-05 22:06:00,64.0,63.4,29.79,ENE,72,1.0,2.0,98,0.06,,,1.48,Wunderground v.1.15,2013-12-06 03:06:00,
2013-12-05 22:12:00,64.0,63.4,29.79,East,80,1.0,2.0,98,0.04,,,1.48,Wunderground v.1.15,2013-12-06 03:12:00,
2013-12-05 22:17:00,63.9,63.3,29.79,ENE,75,1.0,2.0,98,0.00,,,1.48,Wunderground v.1.15,2013-12-06 03:17:00,
2013-12-05 22:23:00,63.9,63.3,29.79,NE,51,1.0,3.0,98,0.00,,,1.48,Wunderground v.1.15,2013-12-06 03:23:00,
2013-12-05 22:29:00,63.8,63.2,29.79,NE,51,1.0,3.0,98,0.00,,,1.49,Wunderground v.1.15,2013-12-06 03:29:00,
2013-12-05 22:35:00,63.7,63.4,29.79,NE,53,1.0,2.0,99,0.00,,,1.49,Wunderground v.1.15,2013-12-06 03:35:00,
2013-12-05 22:41:00,63.7,63.4,29.79,East,81,2.0,2.0,99,0.00,,,1.49,Wunderground v.1.15,2013-12-06 03:41:00,
2013-12-05 22:48:00,63.6,63.3,29.79,East,80,2.0,7.0,99,0.04,,,1.50,Wunderground v.1.15,2013-12-06 03:48:00,
2013-12-05 22:54:00,63.6,63.3,29.79,ENE,72,3.0,7.0,99,0.06,,,1.51,Wunderground v.1.15,2013-12-06 03:54:00,
2013-12-05 23:00:00,63.6,63.3,29.79,East,84,1.0,2.0,99,0.06,,,1.51,Wunderground v.1.15,2013-12-06 04:00:00,
2013-12-05 23:06:00,63.6,63.3,29.79,East,80,1.0,3.0,99,0.05,,,1.51,Wunderground v.1.15,2013-12-06 04:06:00,
2013-12-05 23:11:00,63.6,63.3,29.80,East,80,1.0,1.0,99,0.00,,,1.51,Wunderground v.1.15,2013-12-06 04:11:00,
2013-12-05 23:16:00,63.7,63.4,29.79,ENE,74,1.0,3.0,99,0.00,,,1.51,Wunderground v.1.15,2013-12-06 04:16:00,
2013-12-05 23:22:00,63.6,63.3,29.80,ENE,64,2.0,5.0,99,0.00,,,1.51,Wunderground v.1.15,2013-12-06 04:22:00,
2013-12-05 23:28:00,63.6,63.0,29.79,ENE,76,2.0,5.0,98,0.00,,,1.51,Wunderground v.1.15,2013-12-06 04:28:00,
2013-12-05 23:34:00,63.7,63.1,29.79,NE,52,2.0,6.0,98,0.00,,,1.51,Wunderground v.1.15,2013-12-06 04:34:00,
2013-12-05 23:39:00,63.7,63.1,29.79,ENE,70,2.0,6.0,98,0.00,,,1.51,Wunderground v.1.15,2013-12-06 04:39:00,
2013-12-05 23:44:00,63.6,63.0,29.80,ENE,74,2.0,4.0,98,0.00,,,1.51,Wunderground v.1.15,2013-12-06 04:44:00,
2013-12-05 23:49:00,63.7,63.1,29.80,ENE,74,3.0,5.0,98,0.00,,,1.51,Wunderground v.1.15,2013-12-06 04:49:00,
2013-12-05 23:54:00,63.8,63.2,29.80,ENE,77,3.0,5.0,98,0.00,,,1.51,Wunderground v.1.15,2013-12-06 04:54:00,